This is the latest recevied weather packets stored in our database for station/object N6GPM. If no packets are shown the sender has not sent any weather packets the latest 10 day(s).
| Time | Temp. | Humidity | Pressure | Rain* | Wind** | Luminosity | Snow |
|---|---|---|---|---|---|---|---|
| 1787927764 | 27.22° C | 58% | 1018.1 hPa | 0 mm | - | 153 W/m² | - |
| 1787927459 | 27.22° C | 58% | 1017.8 hPa | 0 mm | - | 138 W/m² | - |
| 1787927154 | 27.22° C | 58% | 1017.9 hPa | 0 mm | - | 126 W/m² | - |
| 1787926849 | 27.22° C | 58% | 1017.7 hPa | 0 mm | - | 114 W/m² | - |
| 1787926549 | 26.67° C | 60% | 1017.5 hPa | 0 mm | - | 101 W/m² | - |
| 1787926247 | 26.67° C | 61% | 1017.8 hPa | 0 mm | - | 91 W/m² | - |
| 1787925942 | 26.11° C | 62% | 1017.6 hPa | 0 mm | - | 81 W/m² | - |
| 1787925637 | 25.56° C | 63% | 1017.8 hPa | 0 mm | - | 70 W/m² | - |
| 1787925332 | 25.56° C | 64% | 1017.5 hPa | 0 mm | - | 59 W/m² | - |
| 1787925031 | 25.56° C | 64% | 1017.6 hPa | 0 mm | - | 49 W/m² | - |
| 1787924725 | 25° C | 65% | 1017.6 hPa | 0 mm | - | 40 W/m² | - |
| 1787924420 | 25° C | 66% | 1017.3 hPa | 0 mm | - | 32 W/m² | - |
| 1787924115 | 25° C | 66% | 1017.3 hPa | 0 mm | - | 24 W/m² | - |
| 1787923810 | 25° C | 66% | 1017.3 hPa | 0 mm | - | 16 W/m² | - |
| 1787923504 | 25° C | 66% | 1016.9 hPa | 0 mm | - | 10 W/m² | - |
| 1787923200 | 25° C | 66% | 1017 hPa | 0 mm | - | 4 W/m² | - |
| 1787922895 | 25° C | 65% | 1016.8 hPa | 0 mm | - | 2 W/m² | - |
| 1787922594 | 25° C | 65% | 1016.7 hPa | 0 mm | - | 1 W/m² | - |
| 1787922294 | 25° C | 65% | 1016.7 hPa | 0 mm | - | 0 W/m² | - |
| 1787921990 | 25° C | 65% | 1016.6 hPa | 0 mm | - | 0 W/m² | - |
| 1787921686 | 25° C | 65% | 1016.7 hPa | 0 mm | - | 0 W/m² | - |
| 1787921385 | 25° C | 64% | 1016.8 hPa | 0 mm | - | 0 W/m² | - |
| 1787921080 | 25° C | 64% | 1016.5 hPa | 0 mm | - | 0 W/m² | - |
| 1787920775 | 25° C | 64% | 1016.6 hPa | 0 mm | - | 0 W/m² | - |
| 1787920475 | 25° C | 64% | 1016.6 hPa | 0 mm | - | 0 W/m² | - |
* Rain latest hour (hover to see other rain measurements)
** Current wind speed in m/s (hover to see current wind gust speed)